WESTFORD NEEDLES, 21660

Orbit data source: Space-Track

WESTFORD NEEDLES, 21660 is space debris in LEO originally from a launch on Thu, 09 May 1963 UTC launched from the Air Force Western Test Range (AFWTR). Debris objects in space refer to the collection of defunct objects orbiting the Earth. Examples of debris include non-operational satellites, rocket bodies, and fragments generated from explosions, collisions, or faulty payload assembly.

Loading next visibility...
Identifier
21660, 1963-014FG
Orbit
LEO
Country
Flag of USUS
Related business
Manufacturer
Unknown
Mission
Spacecraft
Bus & Motor
Unknown
Mass
Unknown
Launch date (UTC)
1963-05-09 (63 years ago)
Launch vehicle
Unknown
Launch site
Air Force Western Test Range (AFWTR)
Object type
Payload
Rocket body
Debris
Shape & HBR
Unknown shape, 0.2 m
Radar Cross Section
Medium (>0.1 m² and <1 m²)

Expand to show TLE details & history
Last TLE update: 3 days ago

TLE from 3 days ago
0 WESTFORD NEEDLES
1 21660U 63014FG  26172.22508102 -.00002222  00000-0 -34537+0 0  9998
2 21660  86.7079 260.6349 1389784   4.3093  16.4176  8.77304949 66056
Epoch: 2026-06-21T05:24Z
TLE epoch observation values (Epoch: 2026-06-21T05:24:07.000Z)
Latitude
26.09626°
Longitude
-88.2156°
Altitude
2,249.965 km
Speed
7.233 km/s
True Right ascension
17h 28m 58s
True Declination
25° 59' 03"
Sunlit
Object was in daylight at epoch
Visualization orbit readout
Latitude
Unknown
Longitude
Unknown
Altitude
Unknown
Speed
Unknown
Apparent Right ascension
Unknown
Apparent Declination
Unknown
Sunlit
N/A
Visualization observer readout
Local Sidereal Time
22:59:27
Azimuth
Unknown
Elevation
Unknown
Doppler factor
Unknown
Orbital elements
Apogee altitude
4,929.842 km
Perigee altitude
2,170.238 km
Semi-major axis
9,928.177 km
Eccentricity
0.13898
Inclination
86.7079°
RAAN
260.6349°
Arg. of periapsis
4.3093°
True anomaly
21.80191°
Mean anomaly
16.4176°
Eccentric anomaly
19.01158°
Mean motion
2.19401 °/min
Orbital period
164.08 mins
BSTAR
-0.34537
Loading maneuver chart data...
Computing Atmospheric mass density...

Documentation

Showing up to 5 results
|